Miscellaneous Local Product
Issued by NWS Hastings, NE

Home | Current Version | Previous Version | Graphics & Text | Print | Product List | Glossary On
Versions: 1 2 3 4 5 6 7 8 9 10 11 12 13 14 15 16 17 18 19 20 21 22 23 24 25 26 27 28 29 30 31 32 33 34 35 36 37 38 39 40 41 42 43 44 45 46 47 48 49 50
616
AXUS43 KGID 242202
MISGRI

GID CWA HOURLY WEATHER ROUNDUP
NATIONAL WEATHER SERVICE HASTINGS NE
500 PM CDT WED MAY 24 2017

NOTE: "FAIR" INDICATES FEW OR NO CLOUDS BELOW 12,000 FEET WITH NO
SIGNIFICANT WEATHER AND/OR OBSTRUCTIONS TO VISIBILITY.

...SOUTH CENTRAL NEBRASKA...

CITY           SKY/WX    TMP DP  RH WIND       PRES   REMARKS
GRAND ISLAND   SUNNY     65  43  44 SW7       29.70F
HASTINGS       SUNNY     65  42  43 S7        29.71F
KEARNEY        SUNNY     64  39  39 SW6       29.69F
ORD            SUNNY     65  41  41 S10G20    29.66F
YORK           SUNNY     64  41  42 N3        29.70F
AURORA         MOSUNNY   65  41  41 S5        29.69F
LEXINGTON      SUNNY     67  43  41 S12       29.67F
HOLDREGE       SUNNY     65  38  37 SW6G17    29.69F
HEBRON         PTSUNNY   67  45  45 W6        29.71F

...NEBRASKA PANHANDLE...

CITY           SKY/WX    TMP DP  RH WIND       PRES   REMARKS
CHADRON        SUNNY     80  48  32 S17       29.44F
ALLIANCE       SUNNY     77  47  34 S18       29.52F
SCOTTSBLUFF    SUNNY     81  45  28 SE14      29.50F
SIDNEY         SUNNY     76  48  37 S15G21    29.58F

...WESTERN AND NORTH CENTRAL NEBRASKA...

CITY           SKY/WX    TMP DP  RH WIND       PRES   REMARKS
VALENTINE      SUNNY     72  34  24 S13G24    29.58F
AINSWORTH      SUNNY     67  42  39 S9        29.62F
ONEILL         SUNNY     65  40  40 SE10      29.67F
BROKEN BOW     SUNNY     66  42  41 S10       29.65F
IMPERIAL       SUNNY     73  44  35 S14G26    29.60F
NORTH PLATTE   SUNNY     70  43  37 S14G21    29.62F
MCCOOK         SUNNY     73  43  33 S14G20    29.64F

...EASTERN NEBRASKA...

CITY           SKY/WX    TMP DP  RH WIND       PRES   REMARKS
NORFOLK        PTSUNNY   65  41  41 VRB3      29.68F
SO SIOUX CITY  CLOUDY    65  45  48 SE5       29.69F
TEKAMAH        CLOUDY    65  44  46 VRB5      29.69S
ALBION         MOSUNNY   67  40  37 SE5       29.68F
OMAHA EPPLEY   PTSUNNY   67  43  41 N3        29.69S
OFFUTT AFB     PTSUNNY   66  45  46 NW6       29.68F
MILLARD        PTSUNNY   65  46  49 CALM      29.69S
LINCOLN        MOSUNNY   67  42  40 CALM      29.70F
NEBRASKA CITY  MOSUNNY   67  37  33 N3        29.69S
BEATRICE       CLOUDY    66  44  44 N6        29.70F
FALLS CITY     PTSUNNY   65  44  46 NW7       29.68S

...NORTHERN KANSAS...

CITY           SKY/WX    TMP DP  RH WIND       PRES   REMARKS
GOODLAND       SUNNY     75  43  31 S12       29.63F
HILL CITY      SUNNY     70  39  32 SE6       29.69F
NORTON         CLEAR     68  37  32 SW3       29.67F
PHILLIPSBURG   SUNNY     70  39  32 S8        29.70F
SMITH CENTER   MOSUNNY   64  41  42 S7        29.71F
HAYS           SUNNY     68  42  38 VRB5      29.71F
RUSSELL        SUNNY     67  44  43 VRB3      29.70F
CONCORDIA      CLOUDY    65  45  48 E3        29.71F
SALINA         MOSUNNY   68  43  40 NW6       29.73F
TOPEKA         MOSUNNY   68  48  48 N10       29.68F



USA.gov is the U.S. government's official web portal to all federal, state and local government web resources and services.